Regional Weather Roundup
Issued by NWS

Home | Current Version | Previous Version | Text Only | Print | Product List | Glossary On
Versions: 1 2 3 4 5 6 7 8 9 10 11 12 13 14 15 16 17 18 19 20 21 22 23 24 25 26 27 28 29 30 31 32 33 34 35 36 37 38 39 40 41 42 43 44 45 46 47 48 49 50
000
ASUS46 KSEW 251110
RWRWA

WASHINGTON REGIONAL WEATHER ROUNDUP
NATIONAL WEATHER SERVICE SEATTLE WA
300 AM PST THU DEC 25 2014

NOTE:"FAIR" INDICATES FEW OR NO CLOUDS BELOW 12,000 FEET WITH NO
SIGNIFICANT WEATHER AND/OR OBSTRUCTIONS TO VISIBILITY.

WAZ505-507>509-251200-
SEATTLE, TACOMA, EVERETT, AND VICINITY

CITY           SKY/WX    TMP DP  RH WIND       PRES   REMARKS
EVERETT        RAIN      40  38  93 S5        30.10R FOG
BOEING FIELD   CLOUDY    44  39  82 S6        30.11R
RENTON         CLOUDY    42  40  92 E3        30.11R
SEATAC AIRPORT FOG       41  38  89 SE7       30.11R VSB 1/4
JBLM-MCCHORD   FOG       32  32 100 CALM      30.11R VSB 1/2
PUYALLUP       NOT AVBL
BREMERTON      CLOUDY    32  32 100 CALM      30.13R VSB 1/2
JBLM-FT LEWIS  CLEAR     30  30  99 MISG      30.10S
TACOMA NARROWS CLOUDY    41  38  89 CALM      30.11R
$$

WAZ001-503-506-510-514-515-251200-
NORTH INTERIOR

CITY           SKY/WX    TMP DP  RH WIND       PRES   REMARKS
BELLINGHAM     CLOUDY    42  38  85 W3        30.07R
FRIDAY HARBOR  CLOUDY    43  34  70 VRB3      30.10R
EASTSOUND      MOCLDY    45  37  76 W6        30.07R
PORT ANGELES   CLEAR     41  32  70 SW10      30.08R
NAS WHIDBEY    CLOUDY    46  38  73 CALM      30.10R
ARLINGTON      CLOUDY    39  34  81 N3        30.12R
BURLINGTON     CLOUDY    39  39 100 SW3       30.10R
$$

WAZ020-022-039-040-504-511-512-251200-
SOUTHWEST INTERIOR

CITY           SKY/WX    TMP DP  RH WIND       PRES   REMARKS
SHELTON        FOG       33  33 100 CALM      30.09R VSB 1/4
OLYMPIA        FOG       29  28  96 CALM      30.11R VSB 1/4
CHEHALIS       FOG       36  36 100 S3        30.12R VSB 1/4
KELSO          CLOUDY    37  36  93 CALM      30.16R
VANCOUVER      CLOUDY    42  38  85 CALM      30.14R
SCAPPOOSE, OR  LGT RAIN  44  39  82 W6        30.13R
PORTLAND, OR   MOCLDY    43  39  86 CALM      30.15R
$$

WAZ021-516-517-251200-
WASHINGTON COAST

CITY           SKY/WX    TMP DP  RH WIND       PRES   REMARKS
FORKS          MOCLDY    46  38  73 NW8G16    30.10R
HOQUIAM        LGT RAIN  45  40  82 NW14      30.11R
ASTORIA, OR    LGT RAIN  47  40  76 NW14      30.13S
$$

WAZ019-023-024-040-518-519-251200-
CASCADE MOUNTAINS AND COLUMBIA GORGE

CITY           SKY/WX    TMP DP  RH WIND       PRES   REMARKS
TROUTDALE, OR  CLOUDY    44  39  82 W5        30.14R
THE DALLES, OR CLOUDY    45  34  65 W9        30.05R
$$

WAZ026-027-041>044-520-521-251200-
EAST SLOPES

CITY           SKY/WX    TMP DP  RH WIND       PRES   REMARKS
OMAK           CLEAR     27  24  89 CALM      29.97R
WENATCHEE      CLEAR     36  25  64 W9        29.96R
ELLENSBURG     CLEAR     36  27  69 NW13      29.96R
YAKIMA         CLEAR     31  24  75 NW8       29.99R
$$

WAZ028-034-035-251200-
COLUMBIA BASIN

CITY           SKY/WX    TMP DP  RH WIND       PRES   REMARKS
EPHRATA        CLEAR     33  24  69 S5        29.94R
MOSES LAKE     CLEAR     35  25  66 NW13      29.96R WCI  26
PASCO          CLEAR     31  29  92 CALM      30.01R
HERMISTON, OR  CLEAR     33  30  88 SW5       30.01R
$$

WAZ036>038-251200-
NORTHEAST WASHINGTON

CITY           SKY/WX    TMP DP  RH WIND       PRES   REMARKS
SPOKANE GEIGER CLEAR     26  23  88 W8        29.86R
SPOKANE FELTS  CLEAR     29  26  89 CALM      29.89R
FAIRCHILD AFB  CLEAR     25  24  97 W8        29.86R
COEURDALENE,ID PTCLDY    28  28 100 CALM      29.86R
DEER PARK      CLEAR     23  21  92 CALM      29.88R
$$

WAZ029>033-251200-
SOUTHEAST WASHINGTON

CITY           SKY/WX    TMP DP  RH WIND       PRES   REMARKS
PULLMAN        CLEAR     30  27  88 W10       29.88R WCI  21
LEWISTON, ID   MOCLDY    37  27  67 W8        29.91R
WALLA WALLA    PTCLDY    36  32  85 S12       29.97R
PENDLETON, OR  MOCLDY    35  31  85 W14       29.97R WCI  26
$$



USA.gov is the U.S. government's official web portal to all federal, state and local government web resources and services.